Regional Weather Roundup
Issued by NWS State College, PA

Home | Current Version | Previous Version | Graphics & Text | Print | Product List | Glossary On
Versions: 1 2 3 4 5 6 7 8 9 10 11 12 13 14 15 16 17 18 19 20 21 22 23 24 25 26 27 28 29 30 31 32 33 34 35 36 37 38 39 40 41 42 43 44 45 46 47 48 49 50
000
ASUS41 KCTP 180610
RWRCTP

REGIONAL WEATHER ROUNDUP
NATIONAL WEATHER SERVICE STATE COLLEGE PA
200 AM EDT SAT APR 18 2015

Note: "fair" indicates few or no clouds below 12,000 feet with no
significant weather and/or obstructions to visibility.

* = STATION THAT DOES NOT REPORT PRECIPITATION /E.G. RAIN...SNOW...ETC/
    THUNDER OR FOG.

PAZ002>004-007>009-013>016-020>023-029>032-180700-
WESTERN PENNSYLVANIA

CITY           SKY/WX    TMP DP  RH WIND       PRES   REMARKS
ERIE           FAIR      50  42  74 S6        30.01F
MEADVILLE      FAIR      50  41  71 CALM      30.03F
FRANKLIN*      FAIR      48  43  81 CALM      30.05F
NEW CASTLE     FAIR      49  47  93 CALM      30.05F
BEAVER COUNTY  NOT AVBL
BUTLER*        FAIR      48  45  87 CALM      30.05F
PITTSBURGH INT MOCLDY    52  45  77 CALM      30.04F
PITTSBURGH     FAIR      58  44  60 CALM      30.04F
INDIANA*       MOCLDY    45  45 100 E3        30.08F
LATROBE        FAIR      46  46 100 CALM      30.07S FOG
WASHINGTON CO* FAIR      45  43  93 CALM      30.07S
$$

PAZ004>006-010>012-017>019-024>028-033>037-041-042-045-046-049>053-180700-
CENTRAL PENNSYLVANIA

CITY           SKY/WX    TMP DP  RH WIND       PRES   REMARKS
BRADFORD       FAIR      40  38  93 CALM      30.04F
DUBOIS         FAIR      52  44  74 CALM      30.04F
CLEARFIELD     FAIR      49  44  83 CALM      30.04F
JOHNSTOWN      FAIR      52  44  74 CALM      30.05F
ALTOONA        FAIR      49  44  83 CALM      30.04F
STATE COLLEGE  FAIR      57  45  65 CALM      30.03F
WILLIAMSPORT   FAIR      50  46  86 CALM      30.01S
SELINSGROVE    FAIR      48  46  93 CALM      30.02S
FT INDIANTOWN  FAIR      64  48  56 N13       29.98F
CAPITAL CITY   FAIR      54  48  80 W5        30.00S
HARRISBURG     FAIR      55  49  80 CALM      29.99S
YORK           FAIR      46  45  96 CALM      30.00F FOG
$$

PAZ038>040-043-044-047-048-054-055-060>062-067>071-180700-
EASTERN PENNSYLVANIA

CITY           SKY/WX    TMP DP  RH WIND       PRES   REMARKS
SCRANTON       FAIR      51  46  83 E5        30.00F
MOUNT POCONO   FAIR      47  44  90 NW6       30.00F
ALLENTOWN      FAIR      50  47  89 NW3       29.99S
QUAKERTOWN*    FAIR      50  50 100 CALM      30.00S
READING        FAIR      54  50  86 N3        29.98S
LANCASTER      FAIR      53  49  86 CALM      29.99S
COATESVILLE    FAIR      57  50  77 W3        29.99F
POTTSTOWN      FAIR      54  52  93 CALM      30.00S
BLUE BELL      FAIR      54  52  94 NE3       29.98R
DOYLESTOWN     FAIR      54  53  97 CALM      29.98S
WILLOW GROVE   NOT AVBL
NORTH PHILA    CLOUDY    58  51  78 N6        29.99S
PHILADELPHIA   FAIR      60  56  86 W3        29.97F
$$


USA.gov is the U.S. government's official web portal to all federal, state and local government web resources and services.